Wind_Speed
47 48 49 50 50 51 51 51 51 51 51 51 50 49 48 48 47 46 46 46 46 47 47 47 48 47 46 45 44 43 43 44 45 45 46 47 47 48 50 51 51 51
48 48 49 49 50 50 50 50 50 50 50 49 48 47 47 46 46 46 46 46 46 46 47 47 46 45 44 44 43 43 44 44 45 45 45 46 46 46 47 48 49 49
48 48 49 49 50 50 50 49 49 49 48 47 47 46 46 46 46 46 45 46 46 46 46 46 45 44 44 44 44 45 45 46 46 46 46 46 46 46 46 47 47 47
48 48 49 49 50 49 49 49 48 47 47 47 47 47 47 47 46 46 46 47 47 46 46 45 45 45 45 46 46 47 47 47 47 46 46 46 46 46 46 46 47 47
48 48 49 49 49 48 48 48 48 47 47 47 48 48 48 47 47 47 48 47 47 47 46 45 46 46 47 48 48 48 48 48 48 47 47 48 48 48 48 48 48 47
47 48 48 49 48 48 48 48 48 48 48 48 49 49 49 49 49 49 49 48 48 48 48 47 48 48 49 49 49 49 49 49 49 49 50 50 50 50 50 49 49 48
47 47 48 48 48 48 48 48 47 47 48 48 49 50 50 50 50 50 50 49 49 49 49 49 50 50 51 50 50 50 50 51 51 52 53 53 52 51 50 49 48 47
47 48 48 47 47 47 47 47 47 48 49 50 50 51 51 51 50 50 50 50 50 51 51 51 52 52 52 52 52 52 52 52 53 53 54 54 53 52 50 49 48 47
48 48 48 48 48 48 48 49 49 50 51 51 51 51 51 50 50 50 50 50 51 52 52 53 53 53 53 53 53 54 54 54 53 53 52 53 53 52 51 50 49 48
50 50 50 49 49 49 50 50 51 52 52 52 52 51 51 51 51 51 51 52 52 53 53 54 54 55 55 55 55 55 55 55 54 54 53 53 53 53 52 51 51 50
51 51 51 51 51 51 51 52 52 53 53 53 52 52 52 52 52 52 53 53 53 54 54 55 56 56 57 57 57 57 57 57 57 57 57 56 55 54 54 53 53 53
52 52 52 52 52 52 53 53 53 54 53 53 53 52 52 53 53 53 53 54 54 55 56 57 57 58 58 58 59 59 60 60 60 61 60 60 58 57 56 55 55 55
54 54 54 54 54 54 54 54 54 54 54 53 53 53 54 54 54 54 54 55 56 57 58 58 59 60 60 61 61 61 62 62 63 63 62 61 60 59 58 57 57 57
55 55 55 55 55 54 54 54 54 54 54 54 55 55 55 54 55 55 56 57 58 58 59 60 60 61 62 63 63 63 64 64 64 63 63 62 61 60 60 59 58 58
55 55 55 55 55 55 55 55 55 55 55 55 55 55 56 56 57 57 58 59 59 60 61 62 62 63 63 64 65 65 66 65 64 63 63 62 62 61 61 60 59 59
54 55 55 55 55 55 55 55 56 56 56 56 56 57 57 58 58 59 59 60 61 62 63 64 64 64 65 65 66 66 67 66 66 65 64 64 63 63 62 61 60 60
53 53 54 54 54 55 55 56 56 57 57 57 58 58 59 60 60 60 61 62 63 64 65 66 66 66 66 67 67 67 68 68 67 66 66 65 65 64 64 63 63 62
54 53 53 54 55 55 56 56 57 57 58 59 59 60 60 61 61 62 63 64 65 66 67 67 68 68 68 69 69 69 69 69 69 68 68 67 67 66 65 65 65 64
56 55 55 55 56 56 56 57 58 58 59 60 61 61 62 62 63 64 65 66 67 68 68 69 70 70 71 71 72 72 72 71 71 70 70 69 68 67 66 66 65 65
58 58 58 58 58 58 58 59 59 60 61 62 62 63 63 64 65 66 67 68 68 69 70 71 72 73 74 74 75 75 75 74 73 72 72 71 70 68 68 67 66 66
58 58 59 60 60 60 61 61 61 62 62 63 63 64 65 66 67 68 68 69 70 71 72 73 74 75 76 77 78 77 77 76 75 74 73 71 71 70 69 69 68 68
57 58 59 60 60 61 61 61 62 63 63 64 64 65 66 67 68 69 70 71 72 73 74 76 77 78 79 79 79 78 77 76 75 74 73 72 72 72 72 71 70 69
54 56 57 58 60 60 61 62 63 63 63 64 65 66 67 68 69 70 72 73 74 75 77 78 79 80 81 80 80 78 77 76 75 74 75 75 75 74 74 73 72 71
53 54 55 57 58 60 61 63 63 64 64 65 66 67 68 70 71 72 74 75 76 78 79 80 81 82 81 80 79 78 77 77 77 78 78 78 78 77 76 74 72 70
55 56 56 57 58 59 61 62 63 64 65 66 68 69 70 72 73 74 75 77 78 79 81 82 82 81 80 79 78 78 78 79 80 81 81 80 79 78 76 73 71 68
58 59 59 59 59 60 61 62 63 64 66 67 69 70 72 73 74 75 77 78 80 81 82 82 81 80 79 79 79 79 80 81 82 82 81 79 78 76 75 73 70 67
Wind_Direction
275 275 276 276 277 277 277 278 278 279 279 279 280 280 280 281 281 282 283 284 286 286 286 286 286 286 286 286 286 285 285 285 285 285 285 285 285 285 285 285 284 284
274 275 276 276 276 277 277 278 278 278 278 279 279 280 280 281 283 284 285 286 286 287 287 287 286 285 285 285 285 285 285 286 287 287 287 287 287 286 285 285 285 285
273 274 274 275 276 276 277 277 277 278 278 279 280 281 282 283 284 285 287 287 287 287 287 286 286 285 285 286 286 286 287 287 288 288 288 288 288 287 287 286 286 286
273 274 274 275 276 277 277 277 278 278 279 280 281 282 283 284 284 285 287 287 287 286 286 286 286 287 288 288 289 289 289 289 288 288 288 289 289 289 288 287 287 287
274 275 275 275 276 277 277 278 278 279 279 280 281 282 283 283 284 285 287 287 286 286 286 287 288 289 290 290 291 291 290 290 289 288 289 290 291 290 289 287 287 287
275 275 275 276 277 277 277 277 278 279 279 280 281 281 282 283 283 285 286 285 284 285 286 287 288 290 291 291 291 292 292 291 289 289 289 291 292 291 289 287 286 286
274 275 275 276 276 276 276 277 277 278 278 279 280 280 282 283 284 285 285 285 285 286 287 287 289 290 291 290 290 291 291 291 290 290 290 290 291 291 289 286 284 284
273 274 274 274 274 274 274 274 275 276 277 278 279 280 282 284 285 285 285 285 286 287 288 289 290 290 290 289 289 290 290 290 291 290 290 289 289 288 287 284 281 281
272 272 272 271 271 272 272 273 274 276 277 279 280 282 283 284 285 285 285 286 287 288 289 290 290 290 289 289 290 290 290 290 290 290 290 289 288 286 285 283 279 278
270 270 270 270 271 272 273 274 275 277 278 280 281 282 283 283 284 284 286 287 288 289 289 289 289 289 290 290 290 291 291 290 289 289 289 289 288 286 284 282 279 277
269 270 270 271 271 272 273 275 276 277 278 280 281 282 283 283 284 285 286 287 287 288 288 289 289 290 290 290 290 290 290 290 289 289 289 289 287 285 283 281 280 277
269 270 270 271 272 273 274 275 276 278 279 281 282 282 282 283 284 285 286 286 287 287 288 288 289 290 290 290 290 290 290 290 290 290 289 288 287 285 283 281 279 277
269 270 271 272 273 274 275 276 277 279 280 281 281 281 282 283 284 284 285 286 286 287 287 288 289 289 289 290 290 290 291 291 291 290 289 288 287 285 283 281 279 278
270 271 272 273 274 275 275 276 277 278 279 280 280 280 281 282 283 284 284 285 286 287 287 288 288 289 289 290 291 291 292 292 292 291 290 288 287 285 283 282 280 279
272 272 273 273 274 274 275 276 277 278 278 279 279 280 281 282 283 284 285 286 286 287 287 288 289 289 290 291 292 293 293 293 292 291 290 289 287 285 283 281 280 279
272 272 272 273 273 274 275 276 277 277 278 279 280 281 282 283 284 285 286 286 286 287 287 289 290 290 291 292 293 294 294 294 293 292 291 290 288 287 285 283 281 279
273 272 273 273 274 275 276 277 278 279 279 280 281 282 283 284 285 285 286 286 286 287 289 290 291 291 292 293 294 295 294 294 293 293 292 291 288 287 285 284 282 280
273 273 274 275 276 276 277 278 279 280 281 282 283 283 284 284 285 285 286 287 288 289 290 291 291 292 294 295 295 295 294 294 293 293 292 291 289 286 284 283 282 281
273 274 275 276 277 277 278 279 280 281 282 282 283 283 284 284 285 286 287 288 289 290 290 291 293 294 295 296 296 296 295 294 293 293 292 291 289 286 284 283 282 280
273 273 274 275 276 277 278 279 280 281 281 282 282 283 283 284 285 286 288 288 289 290 291 293 294 295 296 296 297 296 296 295 294 293 292 290 289 287 285 284 282 281
274 274 274 275 276 277 278 279 280 281 281 282 282 283 284 285 286 287 288 289 290 291 293 294 295 296 296 297 296 296 295 294 293 292 291 290 288 287 286 284 282 281
277 277 276 276 277 278 279 279 280 281 282 282 283 284 285 286 287 288 289 290 291 292 293 294 295 296 296 296 296 296 295 294 293 292 291 290 289 287 286 284 282 281
279 279 279 278 278 279 279 279 280 281 282 283 284 285 286 287 289 289 290 291 292 293 294 294 295 296 296 296 296 295 295 294 294 293 292 291 290 288 286 285 283 281
281 281 281 280 280 280 279 280 280 281 282 284 285 286 288 289 290 290 291 292 293 293 294 295 295 296 296 296 296 296 296 295 295 295 294 293 291 290 288 286 284 282
284 284 283 283 283 282 282 282 282 282 283 285 286 288 289 290 290 291 291 292 293 294 294 295 296 296 296 296 296 296 296 296 296 296 295 294 293 292 290 289 287 285
285 285 286 286 286 287 286 286 285 285 286 287 287 288 289 290 290 291 292 293 294 294 295 296 296 296 296 296 297 297 297 298 297 297 296 296 295 294 293 292 290 288
Height
10680 10680 10679 10679 10678 10678 10678 10677 10677 10677 10676 10676 10676 10676 10675 10675 10675 10675 10674 10674 10673 10672 10671 10670 10669 10668 10667 10666 10665 10664 10663 10662 10660 10659 10659 10658 10656 10655 10653 10652 10650 10649
10676 10675 10675 10674 10674 10673 10673 10673 10672 10672 10671 10671 10671 10670 10670 10669 10669 10669 10668 10668 10667 10666 10665 10664 10663 10662 10661 10660 10659 10658 10657 10656 10655 10654 10653 10652 10650 10649 10648 10646 10644 10643
10671 10671 10670 10670 10669 10669 10669 10668 10668 10667 10666 10666 10665 10665 10664 10664 10664 10664 10663 10662 10662 10661 10659 10658 10657 10656 10655 10654 10654 10653 10652 10650 10649 10648 10647 10646 10645 10643 10642 10640 10638 10637
10666 10666 10665 10665 10664 10664 10664 10663 10663 10662 10662 10661 10660 10660 10659 10659 10659 10658 10658 10657 10656 10655 10653 10652 10651 10650 10649 10649 10648 10647 10645 10644 10643 10642 10641 10640 10639 10637 10636 10634 10632 10631
10661 10661 10660 10660 10659 10659 10659 10658 10657 10657 10656 10656 10655 10654 10654 10654 10653 10653 10652 10651 10650 10648 10647 10646 10645 10644 10643 10642 10641 10640 10639 10637 10636 10635 10634 10633 10632 10631 10629 10628 10626 10625
10655 10655 10654 10654 10654 10653 10653 10652 10652 10652 10651 10650 10649 10649 10649 10648 10648 10647 10646 10645 10644 10642 10641 10640 10639 10638 10637 10636 10635 10633 10632 10630 10629 10628 10627 10626 10625 10624 10622 10621 10620 10618
10650 10649 10649 10649 10648 10648 10647 10647 10646 10646 10645 10645 10644 10643 10643 10642 10642 10641 10640 10639 10638 10636 10635 10634 10633 10632 10630 10629 10628 10627 10625 10624 10622 10621 10620 10619 10618 10617 10615 10614 10613 10612
10645 10644 10644 10643 10643 10642 10642 10641 10641 10640 10640 10639 10638 10638 10637 10637 10636 10635 10634 10633 10631 10630 10628 10627 10626 10625 10624 10622 10621 10620 10618 10617 10616 10614 10613 10611 10610 10610 10608 10607 10606 10605
10640 10639 10638 10637 10637 10637 10636 10636 10635 10634 10634 10633 10633 10632 10632 10631 10630 10629 10628 10627 10625 10624 10622 10621 10620 10618 10617 10616 10614 10612 10611 10610 10609 10607 10606 10604 10603 10602 10601 10600 10599 10599
10634 10633 10632 10632 10632 10631 10631 10630 10629 10628 10628 10628 10627 10627 10626 10625 10624 10623 10622 10620 10619 10617 10616 10614 10613 10611 10610 10609 10607 10606 10604 10603 10602 10600 10599 10598 10596 10595 10594 10593 10592 10592
10628 10627 10627 10627 10626 10626 10625 10624 10623 10623 10622 10622 10621 10621 10620 10619 10618 10617 10616 10614 10613 10611 10610 10608 10606 10604 10603 10602 10600 10599 10597 10596 10594 10593 10591 10590 10589 10587 10586 10585 10584 10584
10622 10622 10622 10622 10621 10620 10619 10618 10618 10617 10617 10616 10616 10615 10614 10613 10612 10610 10609 10608 10606 10605 10603 10602 10600 10598 10596 10594 10593 10591 10590 10588 10586 10585 10583 10582 10580 10579 10578 10577 10576 10575
10616 10617 10617 10617 10616 10615 10614 10613 10612 10612 10611 10610 10609 10609 10607 10606 10605 10604 10603 10601 10600 10599 10597 10595 10593 10591 10588 10587 10585 10583 10581 10580 10578 10576 10574 10573 10571 10570 10569 10568 10567 10566
10611 10611 10611 10611 10610 10609 10608 10607 10606 10606 10605 10604 10603 10602 10601 10600 10599 10597 10596 10595 10593 10592 10590 10588 10586 10584 10581 10579 10577 10575 10573 10571 10569 10567 10565 10563 10562 10561 10560 10558 10557 10556
10605 10606 10605 10605 10604 10603 10602 10601 10600 10599 10599 10598 10597 10596 10595 10594 10592 10591 10589 10588 10586 10584 10582 10580 10579 10577 10574 10571 10569 10566 10564 10562 10560 10558 10556 10554 10552 10550 10549 10549 10548 10547
10600 10599 10599 10599 10598 10597 10596 10595 10594 10593 10592 10591 10590 10589 10588 10586 10585 10583 10582 10580 10578 10576 10574 10572 10571 10569 10567 10564 10561 10558 10555 10552 10550 10548 10547 10544 10542 10540 10538 10537 10537 10537
10594 10593 10593 10592 10591 10590 10589 10589 10588 10587 10586 10585 10583 10582 10580 10579 10577 10576 10574 10572 10570 10568 10566 10564 10562 10560 10558 10555 10553 10550 10547 10544 10541 10539 10537 10534 10532 10530 10528 10526 10525 10525
10587 10587 10586 10586 10585 10584 10583 10582 10581 10580 10579 10578 10576 10575 10573 10571 10570 10568 10566 10564 10562 10560 10558 10556 10553 10551 10549 10546 10544 10541 10538 10535 10532 10529 10527 10525 10522 10520 10519 10517 10515 10513
10581 10581 10580 10579 10578 10577 10576 10575 10574 10573 10572 10570 10569 10567 10565 10563 10562 10560 10558 10556 10554 10552 10549 10547 10544 10542 10539 10537 10534 10531 10528 10525 10522 10519 10517 10514 10512 10510 10508 10507 10505 10503
10575 10574 10574 10573 10572 10571 10570 10569 10568 10566 10565 10563 10561 10559 10558 10556 10554 10552 10550 10548 10546 10543 10541 10538 10535 10532 10529 10526 10523 10520 10517 10514 10511 10509 10506 10503 10501 10499 10497 10495 10494 10493
10569 10568 10567 10566 10565 10564 10563 10562 10561 10559 10557 10556 10554 10552 10550 10548 10546 10544 10542 10540 10537 10535 10532 10529 10526 10522 10519 10516 10513 10510 10506 10503 10500 10497 10494 10492 10489 10487 10486 10484 10482 10481
10563 10562 10561 10559 10558 10557 10556 10555 10553 10552 10550 10548 10546 10545 10543 10541 10539 10537 10534 10532 10529 10526 10523 10520 10516 10513 10509 10506 10502 10499 10495 10492 10488 10485 10482 10480 10478 10475 10473 10472 10470 10469
10557 10555 10554 10553 10551 10550 10549 10547 10546 10544 10543 10541 10539 10538 10536 10534 10531 10529 10526 10523 10520 10517 10514 10510 10507 10503 10499 10495 10491 10487 10484 10480 10477 10473 10470 10467 10464 10462 10460 10458 10457 10456
10551 10549 10548 10546 10545 10543 10542 10540 10539 10537 10536 10534 10532 10530 10528 10525 10523 10520 10517 10514 10511 10508 10505 10501 10497 10493 10489 10485 10481 10476 10473 10469 10465 10461 10457 10453 10450 10447 10445 10444 10443 10442
10544 10543 10541 10540 10538 10537 10535 10533 10532 10530 10528 10526 10524 10522 10520 10517 10514 10511 10508 10505 10502 10499 10495 10491 10487 10483 10479 10475 10470 10466 10462 10458 10453 10449 10444 10439 10435 10432 10430 10428 10428 10428
10537 10536 10534 10533 10531 10530 10528 10526 10524 10522 10520 10518 10516 10514 10511 10509 10506 10503 10500 10496 10493 10489 10485 10481 10477 10473 10469 10465 10461 10456 10452 10447 10442 10436 10432 10427 10423 10419 10416 10414 10413 10412